Miscellaneous Local Product
Issued by NWS North Platte, NE

Home | Current Version | Previous Version | Text Only | Print | Product List | Glossary On
Versions: 1 2 3 4 5 6 7 8 9 10 11 12 13 14 15 16 17 18 19 20 21 22 23 24 25 26 27 28 29 30 31 32 33 34 35 36 37 38 39 40 41 42 43 44 45 46 47 48 49 50
000
AXUS43 KLBF 230610
MISLBF


WESTERN AND NORTH CENTRAL NEBRASKA HOURLY WEATHER ROUNDUP
NATIONAL WEATHER SERVICE NORTH PLATTE NE
100 AM CDT THU OCT 23 2014

***STATIONS NOT REPORTING VARIABLES SUCH AS SKY/WEATHER OR
PRESSURE ARE PROVIDED BY THE NEBRASKA DEPARTMENT OF
ROADS...RAWS...AND APRS NETWORKS...AND ARE NOT UNDER
NATIONAL WEATHER SERVICE QUALITY CONTROL***

...OBSERVATIONS IN AND NEAR THE EASTERN PANHANDLE OF NEBRASKA...

CITY           SKY/WX    TMP DP  RH WIND       PRES   REMARKS
PINE RIDGE     CLEAR     30  28  92 NE5       30.05F WCI  25
CHADRON        CLEAR     32  28  85 CALM      30.05F
ALLIANCE       PTCLDY    34  27  75 CALM      30.08S
SIDNEY         CLEAR     45  35  68 W7        30.12S
WHITECLAY        N/A     32  27  82 E8          N/A  WCI  25
RUSHVILLE        N/A     36  28  75 SW6         N/A  WCI  31
CRESCENT LAKE    N/A     44  29  54 S3          N/A
LISCO            N/A     35  27  73 CALM        N/A
BIG SPRINGS      N/A     45  38  77 CALM        N/A
LEWELLEN         N/A     36  32  86 CALM        N/A
$$

...OBSERVATIONS IN NORTH CENTRAL NEBRASKA...

CITY           SKY/WX    TMP DP  RH WIND       PRES   REMARKS
VALENTINE      CLEAR     42  39  89 SW9       30.05S
THEDFORD       CLEAR     41  40  97 CALM      30.08S
AINSWORTH      CLEAR     42  39  89 SW5       30.05S
O`NEILL        FOG       44  44 100 SW5       30.05R VSB 1/2
ORD            FOG       42  42 100 NW3       30.05S VSB 1/4
BROKEN BOW     FOG       44  43  96 CALM      30.06S VSB 1/4
BROWNLEE         N/A     48  43  81 CALM        N/A
SPRINGVIEW       N/A     37  35  94 CALM        N/A
BREWSTER         N/A     39  39 100 CALM        N/A
ROSE             N/A     49  49  99 S3          N/A
NEWPORT          N/A     39  39  99 SW5         N/A
SARGENT          N/A     44  43  97 CALM        N/A
COMSTOCK         N/A     47  46  99 CALM        N/A
CHAMBERS         N/A     42  41  96 CALM        N/A
EWING            N/A     42  41  96 CALM        N/A
$$

...OBSERVATIONS IN SOUTHWEST NEBRASKA AND FAR NORTHEAST COLORADO...

CITY           SKY/WX    TMP DP  RH WIND       PRES   REMARKS
WRAY           FAIR      42  33  71 CALM      30.11R
HOLYOKE        FAIR      45  32  61 SW5       30.10S
IMPERIAL       CLEAR     46  34  62 W3        30.08F
OGALLALA       CLEAR     40  35  81 W3        30.08F
NORTH PLATTE   FOG       43  42  97 CALM      30.07S VSB 1/4
MCCOOK         CLEAR     48  46  93 CALM      30.07S
LEXINGTON      FOG       49  48  97 CALM      30.07S VSB<1/4
PAXTON           N/A     43  35  73 CALM        N/A
SUTHERLAND       N/A     38  36  92 CALM        N/A
BRADY            N/A     45  42  89 CALM        N/A
GOTHENBURG       N/A     50  47  88 CALM        N/A
CALLAWAY         N/A     44  42  94 CALM        N/A
$$

...SOME WEATHER OBSERVATIONS FROM AROUND THE REGION...

CITY           SKY/WX    TMP DP  RH WIND       PRES   REMARKS
DENVER         PTCLDY    50  41  71 SW9       30.15S
LARAMIE        CLEAR     44  26  49 SW13      30.19F
CHEYENNE       PTCLDY    42  29  59 S7        30.17F
SCOTTSBLUFF    CLEAR     36  30  79 NE3       30.10S
RAPID CITY     CLEAR     40  32  73 W3        30.03S
PIERRE         CLEAR     45  36  70 SW8       29.98F
WINNER         FAIR      52  39  61 SW7       30.02S
SIOUX FALLS    FOG       51  51 100 CALM      30.02S VSB 1/4
OMAHA          CLOUDY    63  60  90 S12       30.03F
GRAND ISLAND   FOG       55  54  96 NW3       30.05F VSB 1/4
KANSAS CITY    CLOUDY    61  51  70 S15       30.09F
WICHITA        CLOUDY    64  57  78 S8        30.08F
HAYS           CLOUDY    61  54  77 SW5       30.07S
LIBERAL        CLOUDY    64  57  77 SW12      30.09F
GOODLAND       CLEAR     49  45  86 S6        30.11R
$$



USA.gov is the U.S. government's official web portal to all federal, state and local government web resources and services.